Location: Falniów
(50.3639°N, 19.9642°E)
Time: 13:33:33
(UTC+00:00)

Cosmos 2082 Rocket - Pass Details

Date: 26 April 2026
Orbit: 831 x 853 km, 71.0° (Epoch: 19 May)

Event Time Altitude Azimuth Distance (km) Brightness Sun altitude
Exits shadow 22:03:41 34° 99° (E) 1,367 3.1 -25.4°
Drops below altitude 10° 22:08:26 10° 43° (NE) 2,492 5.1 -25.6°
Sets 22:11:05 0° 35° (NE) 3,432 6.1 -25.6°
